Wind_Speed
45 45 38 29 29 25 22 18 13 13 14 13 14 17 18 27 32 32 33 34 33 35 34 27 44 41 40 40 38 34 34 36 32 35 40 41 44 44 45 44 42 42 41 40
46 43 37 27 26 24 24 21 19 15 14 16 16 18 17 18 24 29 30 31 31 33 34 34 32 45 44 42 41 38 37 37 36 41 39 35 30 46 46 48 48 45 45 44
44 41 34 26 22 25 23 20 17 16 15 14 16 17 19 18 19 22 26 28 28 28 30 33 32 39 47 49 46 42 42 40 39 37 43 43 43 31 41 45 52 53 47 46
43 39 33 25 19 23 22 19 18 17 19 17 14 14 16 18 18 19 21 24 25 28 28 29 30 30 35 50 51 56 45 44 43 43 42 41 40 40 35 33 35 43 46 50
40 37 32 28 20 20 21 22 21 17 18 15 14 12 13 15 17 19 19 18 20 23 27 29 29 30 30 33 36 53 55 54 48 46 47 46 43 44 41 38 35 30 29 45
40 36 33 29 23 19 22 24 23 20 16 14 10 7 9 12 16 17 20 20 19 18 22 24 26 29 29 30 31 36 44 51 53 52 53 51 49 47 43 42 40 39 41 38
38 35 33 31 28 20 24 23 24 23 21 12 12 9 4 6 11 15 17 18 21 23 24 23 23 26 29 30 32 32 37 42 51 55 56 53 53 52 48 45 44 41 41 43
36 35 34 33 31 25 21 19 21 20 19 17 11 9 8 6 5 7 10 14 17 21 24 26 28 30 31 32 32 32 32 36 42 51 57 58 54 55 54 51 48 46 44 46
35 35 36 36 33 27 23 17 15 17 16 15 13 8 9 11 11 11 13 14 16 18 19 22 26 29 32 33 33 34 36 36 38 42 46 50 54 58 57 55 52 52 48 47
34 34 38 39 36 33 27 18 11 13 15 17 15 12 7 4 5 7 8 11 14 15 15 14 15 17 18 23 30 36 40 40 39 41 42 44 48 50 56 56 51 53 51 52
32 33 37 40 41 37 32 17 10 9 11 15 15 15 11 9 9 7 8 9 9 11 13 15 17 19 21 20 22 23 25 28 37 45 46 46 47 49 50 52 58 55 52 53
30 31 37 39 40 38 34 19 12 9 8 11 14 14 14 14 14 13 13 13 14 14 15 17 17 17 18 20 21 22 17 19 19 21 26 34 47 54 53 54 55 55 57 52
29 30 34 39 37 35 31 24 13 13 10 10 14 12 12 12 12 11 10 11 14 16 19 19 19 19 15 13 15 23 24 21 21 23 25 28 31 32 38 51 58 55 54 54
26 28 31 37 38 37 31 27 17 15 12 11 12 12 10 10 9 8 10 9 10 11 13 14 13 14 14 15 14 14 20 25 27 27 32 34 38 44 46 49 46 55 57 53
23 26 29 34 36 35 30 25 21 15 13 10 9 10 8 10 9 9 5 7 9 12 13 10 9 8 14 15 18 19 21 24 24 24 32 39 38 41 48 50 50 48 50 56
21 23 26 29 32 33 30 26 23 15 12 12 9 8 9 8 10 5 6 8 6 7 11 12 8 10 11 12 11 14 19 24 26 31 37 30 24 22 34 41 45 41 35 42
18 20 23 25 29 30 29 24 25 23 14 12 11 10 9 7 6 6 8 9 7 8 10 14 17 20 17 15 12 14 14 16 18 24 21 10 10 3 6 11 25 34 30 30
15 17 20 23 25 27 28 25 25 25 23 14 12 10 6 4 4 6 6 8 10 10 10 13 16 18 18 22 24 23 13 11 9 15 6 1 5 7 7 10 7 11 19 18
15 16 17 20 20 23 25 28 27 27 26 26 11 9 7 5 7 10 8 8 9 10 12 14 16 15 15 17 21 23 18 6 15 13 13 6 2 7 7 10 7 11 12 14
17 16 16 18 20 21 23 25 27 26 26 27 19 6 4 6 9 10 11 12 13 15 16 17 9 9 11 14 18 25 26 6 7 5 13 13 20 18 14 18 14 16 16 15
21 17 15 15 17 18 20 22 23 23 25 21 25 17 5 7 10 11 12 12 14 16 18 6 3 6 9 11 12 14 20 31 33 23 27 16 25 31 29 26 24 20 16 12
23 22 16 15 15 16 17 18 19 20 21 21 21 17 16 10 12 14 13 12 12 12 5 6 6 6 5 6 9 12 15 18 23 24 23 21 25 24 24 22 20 17 13 11
23 24 19 18 16 15 16 16 14 14 17 16 17 16 13 13 18 17 7 3 9 10 8 5 5 6 7 14 18 21 23 25 26 27 25 23 21 20 19 17 14 11 9 9
25 24 22 22 21 17 15 16 14 12 10 14 12 12 12 10 10 9 8 8 8 11 15 17 17 18 16 17 17 18 20 21 21 21 19 18 16 14 13 11 9 9 10 11
28 23 21 21 27 23 17 16 16 13 9 8 9 9 9 9 10 10 10 13 15 16 13 10 10 11 11 11 12 13 14 13 13 12 11 12 13 14 14 14 14 14 14 14
29 27 26 21 32 30 21 18 18 17 13 10 7 5 5 5 5 5 6 6 6 7 7 8 8 8 8 9 9 10 11 12 13 14 14 14 14 15 16 16 17 16 16 16
Wind_Direction
353 354 355 351 352 354 357 349 324 289 280 271 255 238 243 235 233 237 242 242 239 236 242 243 231 225 232 231 233 233 231 225 222 233 226 238 230 232 235 239 238 238 238 241
356 357 356 353 358 353 347 335 331 334 297 280 263 252 244 239 236 237 238 242 241 238 236 241 237 225 229 235 234 235 234 232 228 231 233 215 238 230 229 232 237 238 240 241
356 358 356 352 356 350 354 352 339 333 324 319 280 261 250 243 238 238 238 238 238 238 237 237 238 229 229 233 237 236 238 238 238 238 233 241 246 231 238 234 237 238 238 243
357 358 357 354 347 350 359 359 354 346 334 308 298 265 253 244 243 240 240 238 235 236 238 239 239 239 232 233 235 239 239 241 241 243 241 237 247 247 252 254 236 242 237 241
356 359 358 358 345 350 355 359 352 338 349 318 304 276 247 246 243 243 247 245 238 236 237 237 239 240 242 240 242 239 242 241 242 244 245 247 246 251 255 257 255 267 256 238
358 359 4 360 345 341 346 356 358 6 352 352 349 294 241 249 249 245 245 248 247 242 237 237 238 241 242 242 245 241 242 245 244 245 246 248 250 251 252 255 261 260 257 255
359 360 6 359 357 334 335 352 353 6 8 348 359 358 320 264 256 256 251 249 249 248 245 238 235 235 238 241 242 243 241 241 245 243 244 248 251 253 252 253 254 258 257 259
359 3 7 3 355 350 330 337 351 356 7 7 335 321 320 304 295 283 281 273 264 258 254 249 247 246 245 246 247 246 244 241 241 243 247 248 247 250 253 251 250 251 255 257
355 4 7 6 1 355 342 323 334 351 1 5 6 337 295 287 292 293 282 280 281 279 274 269 262 255 254 254 252 248 247 245 245 241 242 246 247 248 251 253 254 253 253 253
355 3 7 5 4 358 346 326 320 340 356 4 2 2 1 316 312 313 309 294 286 283 284 281 273 260 254 253 256 257 253 249 246 246 246 245 246 245 247 248 251 252 252 253
354 0 5 4 4 2 355 335 329 339 352 1 3 8 12 355 337 326 325 336 308 287 280 276 273 268 261 263 260 260 259 257 253 250 246 246 247 244 244 247 248 246 251 252
350 359 5 5 5 6 6 357 353 346 355 6 3 357 358 356 355 350 344 337 324 314 305 292 283 278 271 261 256 258 239 238 250 255 256 255 251 251 249 247 247 250 248 249
348 357 3 5 7 8 16 10 11 11 5 13 6 1 352 349 348 350 336 332 332 325 319 315 308 303 289 275 275 256 250 243 245 259 265 267 266 260 260 254 249 248 248 251
345 355 359 4 5 9 16 19 12 16 7 9 11 10 10 7 3 356 360 8 46 23 353 339 323 313 315 306 289 281 267 268 270 274 275 273 268 268 263 259 255 247 245 246
340 353 355 2 6 8 11 14 13 3 358 356 8 18 22 29 21 7 72 83 53 45 55 54 40 345 309 295 287 279 277 271 269 276 285 285 276 269 267 245 241 245 242 241
329 350 354 358 6 8 7 10 9 3 347 336 340 356 7 8 27 9 2 5 353 358 21 9 11 23 18 1 340 299 276 270 265 283 294 294 290 275 251 241 236 232 243 234
317 342 351 353 3 6 6 10 10 5 336 320 321 321 336 342 358 306 314 324 346 1 12 10 5 2 352 347 354 342 318 290 298 305 318 273 299 295 126 198 222 233 233 235
303 327 347 347 356 3 6 6 5 3 5 329 313 307 313 300 268 270 291 303 317 331 345 354 353 349 338 330 330 338 328 318 340 357 5 327 20 43 134 149 145 207 207 197
289 308 334 341 346 358 4 5 6 7 7 360 326 303 313 267 270 272 267 284 297 308 321 333 338 336 343 354 343 339 357 74 64 80 56 52 92 79 156 157 177 159 181 207
274 289 314 334 339 350 359 3 7 6 13 13 14 360 341 296 292 282 286 301 307 316 326 337 339 11 25 43 35 35 37 98 86 111 47 34 102 111 93 101 121 124 114 112
276 276 291 316 329 336 349 356 4 3 11 13 17 26 350 306 293 292 295 308 319 322 323 327 51 49 51 46 44 51 57 64 70 88 80 88 82 80 81 83 89 98 101 98
276 272 273 289 313 323 333 347 359 4 10 10 16 20 26 352 310 289 280 283 300 314 111 106 88 73 48 36 57 75 80 82 86 88 83 82 87 95 96 92 94 96 104 108
269 270 264 277 288 305 315 326 346 357 4 3 17 15 9 13 30 39 51 49 99 104 102 87 78 84 93 101 102 98 98 98 98 96 90 87 87 87 93 96 98 99 95 85
262 268 265 263 270 277 301 307 321 334 347 357 10 25 34 31 32 48 57 88 106 108 107 108 108 108 97 93 94 89 88 88 89 86 85 83 76 69 67 64 60 55 44 39
252 262 268 255 264 263 279 292 297 307 311 329 349 1 21 41 66 87 108 117 119 123 120 110 102 101 101 100 98 98 94 93 89 84 74 67 63 57 49 42 35 31 24 18
256 255 262 260 255 261 261 271 279 283 287 285 293 313 336 11 23 70 105 111 120 126 123 114 116 107 109 105 98 96 91 84 74 69 62 56 48 41 36 33 29 22 17 11
Height
5751 5743 5734 5728 5722 5717 5713 5710 5707 5706 5706 5706 5707 5708 5710 5712 5716 5719 5723 5728 5733 5736 5739 5743 5747 5751 5755 5759 5763 5768 5773 5776 5778 5786 5785 5791 5795 5796 5801 5802 5804 5807 5809 5812
5749 5740 5732 5726 5721 5717 5712 5709 5706 5703 5703 5703 5703 5704 5706 5708 5710 5713 5716 5721 5725 5729 5733 5736 5739 5744 5748 5752 5757 5761 5765 5769 5773 5776 5778 5781 5774 5777 5789 5794 5795 5797 5800 5804
5748 5739 5730 5724 5719 5716 5711 5708 5704 5702 5701 5699 5699 5700 5702 5704 5707 5709 5711 5714 5718 5723 5727 5731 5734 5737 5740 5744 5748 5754 5758 5762 5765 5768 5771 5774 5774 5777 5782 5781 5786 5788 5791 5794
5747 5737 5730 5724 5719 5716 5712 5708 5705 5700 5698 5697 5696 5697 5698 5699 5702 5704 5706 5709 5713 5716 5720 5724 5727 5730 5733 5737 5740 5745 5750 5755 5758 5760 5762 5764 5766 5770 5773 5775 5777 5778 5781 5786
5746 5736 5729 5723 5719 5715 5712 5707 5703 5700 5695 5693 5692 5692 5695 5696 5698 5700 5702 5704 5707 5710 5713 5716 5720 5723 5727 5729 5732 5736 5740 5745 5750 5753 5755 5757 5759 5761 5763 5766 5768 5772 5772 5777
5745 5738 5730 5723 5718 5714 5711 5706 5703 5698 5694 5692 5689 5690 5692 5694 5695 5697 5699 5701 5703 5705 5707 5710 5713 5716 5718 5722 5724 5728 5730 5734 5738 5743 5746 5748 5751 5754 5757 5760 5761 5764 5766 5771
5745 5738 5729 5724 5718 5713 5710 5705 5702 5698 5694 5693 5690 5690 5691 5692 5692 5693 5695 5697 5698 5700 5702 5704 5706 5708 5711 5713 5716 5719 5722 5724 5728 5732 5736 5739 5741 5743 5748 5752 5754 5757 5759 5762
5744 5736 5729 5724 5718 5712 5708 5705 5702 5698 5695 5693 5691 5691 5691 5691 5691 5692 5692 5693 5693 5694 5695 5697 5699 5701 5703 5705 5708 5710 5713 5715 5718 5721 5725 5729 5732 5735 5737 5741 5745 5748 5751 5753
5743 5736 5728 5723 5717 5711 5706 5702 5701 5698 5695 5693 5692 5690 5689 5689 5689 5690 5690 5689 5689 5689 5689 5690 5692 5694 5696 5697 5699 5701 5704 5707 5709 5711 5714 5717 5720 5724 5727 5729 5733 5736 5740 5743
5743 5736 5728 5722 5716 5710 5703 5699 5698 5697 5694 5692 5691 5689 5688 5688 5688 5688 5687 5686 5685 5684 5684 5684 5685 5687 5688 5689 5690 5691 5693 5696 5699 5702 5704 5706 5709 5712 5715 5718 5721 5725 5728 5732
5741 5735 5729 5722 5715 5708 5700 5695 5694 5695 5694 5692 5690 5690 5688 5687 5686 5686 5686 5684 5682 5681 5681 5681 5680 5681 5682 5683 5684 5684 5685 5686 5688 5691 5693 5695 5698 5700 5703 5706 5708 5712 5715 5720
5741 5735 5728 5723 5715 5707 5700 5695 5693 5693 5694 5692 5690 5690 5687 5686 5685 5684 5683 5682 5681 5680 5678 5676 5675 5675 5676 5676 5677 5678 5678 5679 5680 5681 5683 5685 5688 5689 5691 5694 5697 5699 5702 5707
5740 5734 5729 5723 5718 5710 5702 5697 5695 5694 5693 5692 5691 5691 5688 5687 5685 5683 5682 5681 5679 5676 5673 5670 5668 5668 5669 5671 5671 5671 5672 5673 5673 5675 5675 5676 5677 5678 5679 5681 5684 5687 5691 5696
5739 5733 5729 5723 5716 5710 5703 5699 5697 5695 5694 5692 5691 5689 5687 5686 5684 5682 5681 5680 5677 5675 5671 5668 5666 5665 5665 5665 5666 5666 5666 5667 5666 5665 5666 5665 5664 5663 5665 5666 5670 5673 5679 5684
5738 5732 5728 5723 5717 5711 5706 5702 5698 5696 5694 5693 5691 5689 5687 5687 5684 5682 5681 5680 5679 5677 5674 5671 5669 5665 5663 5663 5662 5662 5661 5660 5659 5657 5655 5651 5646 5643 5643 5647 5653 5660 5665 5671
5736 5732 5728 5724 5718 5712 5708 5703 5699 5696 5694 5692 5690 5688 5687 5686 5685 5685 5683 5681 5680 5678 5676 5674 5671 5667 5664 5661 5658 5656 5654 5652 5652 5649 5642 5638 5634 5627 5626 5632 5641 5649 5656 5662
5733 5730 5728 5725 5718 5714 5710 5704 5700 5696 5692 5691 5688 5687 5686 5685 5684 5684 5682 5680 5679 5677 5675 5672 5669 5665 5662 5660 5657 5654 5650 5647 5646 5641 5634 5634 5632 5625 5622 5624 5634 5645 5652 5659
5730 5728 5725 5724 5718 5714 5711 5706 5700 5695 5691 5687 5685 5685 5684 5684 5683 5682 5681 5679 5678 5676 5674 5671 5668 5665 5662 5658 5653 5650 5647 5645 5644 5639 5634 5634 5632 5629 5629 5629 5636 5643 5650 5658
5727 5726 5723 5722 5719 5714 5710 5707 5701 5695 5691 5685 5681 5681 5682 5683 5683 5681 5679 5678 5676 5675 5673 5671 5668 5666 5663 5659 5654 5649 5645 5643 5641 5640 5639 5636 5633 5634 5634 5636 5640 5646 5653 5658
5724 5723 5722 5720 5717 5713 5710 5706 5702 5697 5691 5685 5680 5679 5680 5681 5681 5680 5679 5678 5676 5674 5673 5670 5668 5666 5664 5662 5658 5654 5646 5645 5644 5644 5641 5641 5639 5639 5640 5641 5645 5649 5654 5657
5719 5719 5719 5717 5715 5713 5709 5707 5702 5699 5697 5688 5684 5681 5679 5679 5679 5678 5677 5676 5675 5673 5672 5670 5669 5668 5666 5664 5663 5660 5656 5652 5649 5649 5648 5647 5647 5645 5648 5650 5652 5654 5657 5660
5714 5714 5715 5715 5713 5712 5709 5707 5703 5701 5696 5691 5687 5684 5681 5678 5675 5673 5673 5673 5673 5671 5671 5671 5670 5669 5667 5666 5665 5662 5661 5658 5655 5654 5654 5653 5651 5652 5653 5655 5656 5658 5660 5662
5708 5710 5711 5711 5710 5708 5707 5705 5703 5700 5697 5694 5690 5686 5683 5680 5676 5671 5669 5670 5671 5672 5671 5671 5670 5669 5668 5668 5667 5666 5665 5663 5662 5660 5660 5660 5659 5659 5659 5660 5660 5660 5660 5660
5701 5702 5705 5705 5704 5704 5704 5703 5701 5699 5696 5695 5692 5689 5685 5682 5679 5676 5675 5673 5673 5673 5673 5673 5673 5673 5673 5672 5671 5670 5669 5668 5667 5666 5666 5665 5665 5665 5664 5664 5663 5662 5661 5660
5694 5696 5698 5700 5697 5699 5700 5699 5698 5696 5695 5694 5693 5691 5688 5685 5683 5681 5679 5678 5677 5677 5677 5676 5676 5675 5675 5674 5673 5672 5671 5671 5669 5669 5668 5667 5666 5666 5665 5664 5663 5662 5661 5660
5689 5691 5690 5692 5689 5690 5695 5694 5693 5692 5692 5690 5690 5690 5689 5687 5685 5683 5682 5681 5680 5679 5678 5677 5676 5676 5675 5674 5674 5673 5672 5671 5670 5669 5668 5667 5666 5665 5664 5663 5662 5661 5659 5658